Location: Houhaj�rvi
(61.2833°N, 23.0000°E)
Time: 03:40:23
(UTC+00:00)

USA 238 DEB - Pass Details

Date: 27 February 2020
Orbit: 1018 x 1195 km, 63.4° (Epoch: 05 April)

Event Time Altitude Azimuth Distance (km) Brightness Sun altitude
Rises 16:15:32 0° 290° (WNW) 3,868 7.9 -4.3°
Reaches altitude 10° 16:18:08 10° 290° (WNW) 2,935 7.1 -4.6°
Maximum altitude 16:25:09 88° 20° (NNE) 1,129 3.9 -5.5°
Drops below altitude 10° 16:32:29 10° 112° (ESE) 3,059 5.6 -6.3°
Enters shadow 16:34:24 - 113° (ESE) 3,736 6.0 -6.6°
